Marietta, GA

7:25 AM EDT on September 20, 2017 (GMT -0400)
Dobbins Air Force Base

Weather History for KMGE - July, 2013

Change the Weather History Date:

Thursday, July 11, 2013

  Actual Average Record
Temperature  
Mean Temperature 76 °F -  
Max Temperature 80 °F 85 °F 96 °F (2000)
Min Temperature 71 °F 68 °F 68 °F (1996)
Cooling Degree Days 10    
Growing Degree Days 26 (Base 50)    
Moisture  
Dew Point 72 °F    
Average Humidity 92    
Maximum Humidity 100    
Minimum Humidity 74    
Precipitation  
Precipitation 0.00 in - - ()
Sea Level Pressure  
Sea Level Pressure 29.97 in    
Wind  
Wind Speed 4 mph (WNW)    
Max Wind Speed 7 mph    
Max Gust Speed -    
Visibility 9 miles    
Events Rain    
Averages and records for this station are not official NWS values.
T = Trace of Precipitation, MM = Missing Value Source: NWS Daily Summary

Daily Weather History Graph

Daily Weather History Graph

Search for Another Location

Airport or City:

Trip Planner

Search our weather history database for the weather conditions in past years. The results will help you decide how hot, cold, wet, or windy it might be!

Date:

Astronomy

Jul. 11, 2013 Rise Set
Actual Time 6:35 AM EDT 8:51 PM EDT
Civil Twilight 6:07 AM EDT 9:19 PM EDT
Nautical Twilight 5:32 AM EDT 9:54 PM EDT
Astronomical Twilight 4:54 AM EDT 10:32 PM EDT
Moon 9:42 AM EDT (7/11) 10:43 PM EDT (7/11)
Length of Visible Light 15h 12m
Length of Day
14h 15m
Waxing Crescent, 10% of the Moon is Illuminated
Jul 11
Waxing Crescent
Jul 15
First Quarter
Jul 22
Full
Jul 29
Last Quarter
Aug 6
New

Hourly Weather History & Observations

Time (EDT) Temp. Heat Index Dew Point Humidity Pressure Visibility Wind Dir Wind Speed Gust Speed Precip Events Conditions
12:03 AM 75.2 °F - 75.2 °F 100% 30.01 in 10.0 mi West 6.9 mph - N/A   Mostly Cloudy
12:08 AM 75.2 °F - 75.2 °F 100% 30.01 in 10.0 mi WSW 5.8 mph - N/A   Mostly Cloudy
12:13 AM 75.2 °F - 75.2 °F 100% 30.01 in 10.0 mi SW 6.9 mph - N/A   Scattered Clouds
12:58 AM 75.0 °F - 74.1 °F 97% 29.97 in 10.0 mi WSW 3.5 mph - N/A   Clear
1:58 AM 74.7 °F - 73.8 °F 97% 29.98 in 10.0 mi Variable 3.5 mph - N/A   Clear
2:15 AM 75.2 °F - 73.4 °F 94% 30.01 in 10.0 mi WNW 4.6 mph - N/A   Partly Cloudy
2:50 AM 73.4 °F - 73.4 °F 100% 29.99 in 10.0 mi NW 4.6 mph - N/A   Mostly Cloudy
2:58 AM 74.1 °F - 73.4 °F 98% 29.96 in 10.0 mi NNW 3.5 mph - N/A   Mostly Cloudy
3:13 AM 73.4 °F - 71.6 °F 94% 29.99 in 10.0 mi NW 3.5 mph - N/A   Scattered Clouds
3:48 AM 73.4 °F - 71.6 °F 94% 29.99 in 10.0 mi West 5.8 mph - N/A   Mostly Cloudy
3:53 AM 73.4 °F - 71.6 °F 94% 29.99 in 10.0 mi WNW 4.6 mph - N/A   Mostly Cloudy
3:58 AM 73.6 °F - 72.1 °F 95% 29.96 in 10.0 mi West 5.8 mph - N/A   Mostly Cloudy
4:18 AM 73.4 °F - 71.6 °F 94% 29.98 in 10.0 mi NW 5.8 mph - N/A   Mostly Cloudy
4:53 AM 73.4 °F - 69.8 °F 88% 29.98 in 10.0 mi North 3.5 mph - N/A   Mostly Cloudy
4:58 AM 73.4 °F - 69.8 °F 88% 29.96 in 10.0 mi North 3.5 mph - N/A   Mostly Cloudy
5:58 AM 72.0 °F - 69.8 °F 93% 29.96 in 10.0 mi North 3.5 mph - N/A   Overcast
6:53 AM 71.6 °F - 69.8 °F 94% 29.99 in 10.0 mi Calm Calm - N/A   Overcast
6:58 AM 72.0 °F - 69.1 °F 91% 29.97 in 10.0 mi Calm Calm - N/A   Overcast
7:54 AM 71.6 °F - 69.8 °F 94% 30.01 in 10.0 mi West 4.6 mph - N/A Rain Light Rain
7:58 AM 71.6 °F - 69.8 °F 94% 29.99 in 10.0 mi WSW 4.6 mph - N/A Rain Light Rain
8:18 AM 71.6 °F - 69.8 °F 94% 30.01 in 10.0 mi West 5.8 mph - N/A Rain Light Rain
8:58 AM 71.6 °F - 71.1 °F 98% 29.99 in 10.0 mi West 3.5 mph - 0.00 in Rain Light Rain
9:29 AM 71.6 °F - 71.6 °F 100% 30.01 in 7.0 mi NW 2.3 mph - N/A   Overcast
9:58 AM 72.5 °F - 71.1 °F 95% 29.99 in 7.0 mi Calm Calm - 0.00 in   Overcast
10:20 AM 73.4 °F - 71.6 °F 94% 30.01 in 7.0 mi SSW 4.6 mph - N/A   Light Drizzle
10:49 AM 73.4 °F - 71.6 °F 94% 30.01 in 7.0 mi Variable 3.5 mph - N/A   Overcast
10:58 AM 73.4 °F - 71.6 °F 94% 29.99 in 7.0 mi South 3.5 mph - 0.00 in   Overcast
11:58 AM 74.8 °F - 72.3 °F 92% 29.99 in 6.0 mi SSW 5.8 mph - N/A   Overcast
12:58 PM 74.1 °F - 72.0 °F 93% 29.98 in 6.0 mi West 5.8 mph - N/A   Overcast
1:25 PM 73.4 °F - 71.6 °F 94% 30.00 in 7.0 mi NW 5.8 mph - N/A   Overcast
1:58 PM 73.2 °F - 71.2 °F 93% 29.97 in 7.0 mi West 3.5 mph - N/A   Overcast
2:11 PM 73.4 °F - 71.6 °F 94% 29.99 in 7.0 mi NNW 3.5 mph - N/A   Overcast
2:25 PM 73.4 °F - 71.6 °F 94% 29.99 in 7.0 mi NNW 3.5 mph - N/A Rain Light Rain
2:35 PM 73.4 °F - 71.6 °F 94% 29.99 in 7.0 mi Variable 2.3 mph - N/A Rain Light Rain
2:50 PM 75.2 °F - 71.6 °F 89% 29.99 in 7.0 mi NW 2.3 mph - N/A Rain Light Rain
2:58 PM 75.0 °F - 72.0 °F 90% 29.97 in 7.0 mi WNW 4.6 mph - 0.00 in Rain Light Rain
3:05 PM 75.2 °F - 71.6 °F 89% 29.99 in 7.0 mi WNW 4.6 mph - N/A   Overcast
3:16 PM 77.0 °F - 71.6 °F 83% 29.98 in 7.0 mi Variable 1.2 mph - N/A   Overcast
3:37 PM 77.0 °F - 71.6 °F 83% 29.98 in 7.0 mi Variable 1.2 mph - N/A   Overcast
3:54 PM 77.0 °F - 71.6 °F 83% 29.97 in 7.0 mi Calm Calm - N/A   Overcast
3:58 PM 76.6 °F - 71.2 °F 83% 29.95 in 7.0 mi WNW 2.3 mph - N/A   Overcast
4:53 PM 77.0 °F - 71.6 °F 83% 29.95 in 10.0 mi NNW 5.8 mph - N/A   Overcast
4:58 PM 78.1 °F - 71.8 °F 81% 29.93 in 10.0 mi Variable 2.3 mph - N/A   Overcast
5:44 PM 78.8 °F - 71.6 °F 78% 29.94 in 10.0 mi WSW 2.3 mph - N/A   Mostly Cloudy
5:58 PM 79.9 °F - 72.1 °F 77% 29.91 in 10.0 mi Variable 2.3 mph - N/A   Mostly Cloudy
6:58 PM 80.1 °F 83.6 °F 71.2 °F 74% 29.91 in 10.0 mi Calm Calm - N/A   Overcast
7:58 PM 79.3 °F - 72.5 °F 79% 29.90 in 10.0 mi East 2.3 mph - N/A   Mostly Cloudy
8:58 PM 77.0 °F - 73.2 °F 88% 29.91 in 10.0 mi SW 2.3 mph - N/A   Mostly Cloudy
9:58 PM 75.2 °F - 73.0 °F 93% 29.91 in 10.0 mi NW 1.2 mph - N/A   Mostly Cloudy
10:58 PM 73.6 °F - 72.7 °F 97% 29.91 in 10.0 mi SSE 2.3 mph - N/A   Mostly Cloudy
11:58 PM 73.0 °F - 72.0 °F 96% 29.91 in 10.0 mi North 2.3 mph - N/A   Clear